Regional Weather Roundup
Issued by NWS Jackson, KY

Home | Current Version | Previous Version | Graphics & Text | Print | Product List | Glossary On
Versions: 1 2 3 4 5 6 7 8 9 10 11 12 13 14 15 16 17 18 19 20 21 22 23 24 25 26 27 28 29 30 31 32 33 34 35 36 37 38 39 40 41 42 43 44 45 46 47 48 49 50
000
ASUS43 KJKL 012211
RWRJKL

EAST KENTUCKY HOURLY WEATHER ROUNDUP
NATIONAL WEATHER SERVICE JACKSON KY
600 PM EDT MON SEP 01 2014

NOTE: "FAIR" INDICATES FEW OR NO CLOUDS BELOW 12,000 FEET WITH
NO SIGNIFICANT WEATHER AND/OR OBSTRUCTIONS TO VISIBILITY.

* THESE REPORTS ARE NOT UNDER NWS QUALITY CONTROL AND MAY NOT
  REPORT WEATHER SUCH AS PRECIPITATION AND FOG.

KYZ079-080-083-085-087-088-110-112-115-119-120-012300
...EASTERN KENTUCKY...

CITY           SKY/WX    TMP DP  RH WIND       PRES   REMARKS
JACKSON        MOSUNNY   85  69  58 CALM      30.03F
LONDON         SUNNY     89  65  44 SW12      30.04S HX  91
SOMERSET*      MOSUNNY   86  63  45 SW7G16    30.03S
MONTICELLO*    SUNNY     87  69  54 SW8       30.04S HX  91
WILLIAMSBURG*  SUNNY     86  66  51 W3        30.04S
MIDDLESBORO*   SUNNY     87  69  55 S10       30.06S HX  92
HARLAN APT*    PTCLDY    86  64  48 MISG      30.07S
HAZARD APT*    CLEAR     86  68  54 SW6       30.03F
BLACK MTN*       N/A     72  66  83 SW5         N/A
PIKEVILLE APT* SUNNY     82  68  61 S3        30.04F
BIG SANDY*     MOCLDY    85  70  60 SW6       30.02F HX  90
MOREHEAD APT*  CLOUDY    77  72  83 S8        30.02F
$$

KYZ035-036-041-042-044-050-067-078-099-012300
...CENTRAL KENTUCKY...

CITY           SKY/WX    TMP DP  RH WIND       PRES   REMARKS
MT STERLING*   MOSUNNY   82  72  69 W8G18     30.01S
FLEMING/MASON* MOSUNNY   81  72  74 SW10      29.99F
DANVILLE*      PTSUNNY   82  70  65 SW7       30.01S
RICHMOND*      PTSUNNY   84  68  58 SW10G17   30.00R
LEXINGTON      LGT RAIN  80  73  79 W13       29.99S
FRANKFORT      PTSUNNY   84  73  69 S9        29.96S HX  90
$$

KYZ091>093-OHZ055-061-077-WVZ005-015-034-035-042-012300
...SOUTHERN OHIO/WEST VIRGINIA...

CITY           SKY/WX    TMP DP  RH WIND       PRES   REMARKS
COVINGTON      PTSUNNY   84  70  62 S12       29.93S
COLUMBUS       PTSUNNY   87  70  56 SW14G23   29.90F HX  92
DAYTON         PTSUNNY   84  71  65 SW16      29.91S
WILMINGTON     PTSUNNY   81  69  67 W14G21    29.93R
HUNTINGTON     CLOUDY    75  71  87 S5        29.99F
CHARLESTON     LGT RAIN  74  69  85 SW9       30.03R
BECKLEY        SUNNY     81  62  52 W12       30.12F
BLUEFIELD      SUNNY     82  64  54 W10       30.16S
$$

VAZ002-007-008-TNZ017-027-036-066-071-012300
...SOUTHWEST VIRGINIA/EAST TENNESSEE...

CITY           SKY/WX    TMP DP  RH WIND       PRES   REMARKS
WISE*          MOSUNNY   81  64  57 SW6       30.16S
JONESVILLE*      N/A     86  68  54 SW7       30.09S
ABINGDON*      SUNNY     85  65  51 NW6       30.12S
BRISTOL        MOSUNNY   88  64  44 W7        30.08F
KNOXVILLE      MOSUNNY   88  70  55 SW14      30.04S HX  93
OAK RIDGE      SUNNY     91  70  49 S9        30.06S HX  96
CROSSVILLE     MOSUNNY   84  66  54 VRB6      30.11S
NASHVILLE      PTSUNNY   90  68  48 SW9G16    29.99F HX  94
$$

...KEY TO REMARKS...
VSB - VISIBILITY IN MILES
WCI - WIND CHILL INDEX
HX  - HEAT INDEX

$$


USA.gov is the U.S. government's official web portal to all federal, state and local government web resources and services.